Regional Weather Roundup
Issued by NWS

Home | Current Version | Previous Version | Text Only | Print | Product List | Glossary On
Versions: 1 2 3 4 5 6 7 8 9 10 11 12 13 14 15 16 17 18 19 20 21 22 23 24 25 26 27 28
000
ASUS44 KLIX 170414
RWRLA
LOUISIANA WEATHER ROUNDUP
NATIONAL WEATHER SERVICE NEW ORLEANS LA
1100 PM CDT WED AUG 16 2017

NOTE: "FAIR" INDICATES FEW OR NO CLOUDS BELOW 12,000 FEET WITH NO
      SIGNIFICANT WEATHER AND/OR OBSTRUCTIONS TO VISIBILITY.
      SKY/WX - SKY CONDITION AND SIGNIFICANT WEATHER.
      TMP - AIR TEMPERATURE.    DP   - DEWPOINT TEMPERATURE.
      RH  - RELATIVE HUMIDITY.  PRES - PRESSURE.
      HX  - HEAT INDEX.         WCI  - WIND CHILL INDEX.

*  THESE STATIONS ARE NOT NWS OR FAA STATIONS AND ARE NOT UNDER
   NWS QUALITY CONTROL.

LAZ040-048-061>063-065-066-069-170500-
SOUTHEAST LOUISIANA

CITY           SKY/WX    TMP DP  RH WIND       PRES   REMARKS
N.O. INTL ARPT PTCLDY    80  76  87 E3        30.06S
N.O. LAKEFRONT CLEAR     82  76  81 SE5       30.06S
N.O. DOWNTOWN* FAIR      83  76  79 SE5       30.07S
RESERVE*       MOCLDY    80  76  89 CALM      30.06S
SLIDELL        CLEAR     76  73  91 CALM      30.05F
BATON ROUGE    CLEAR     76  75  97 SE7       30.04F
BOOTHVILLE     CLEAR     85  78  80 S6        30.07S HX  96
BELLE CHASSE   PTCLDY    81  78  91 SE3       30.06R
BOGALUSA*      FAIR      76  73  88 CALM      30.07F
GALLIANO*      CLEAR     78  74  89 CALM      30.07S
NEW ROADS*     FAIR      74  73  98 SE3       30.04F
GONZALES*      FAIR      78  76  96 CALM      30.04F
HAMMOND*       CLEAR     77  72  83 CALM      30.05F
HOUMA*         NOT AVBL
PORT FOURCHON* CLEAR     84  75  74 VRB5      30.06S

$$

LAZ041-044-053-054-170500-
SOUTHWEST LOUISIANA

CITY           SKY/WX    TMP DP  RH WIND       PRES   REMARKS
LAKE CHARLES   CLOUDY    83  79  88 S5        30.01R
LAFAYETTE      PTCLDY    81  80  97 CALM      30.03S
PATTERSON      CLEAR     79  78  97 SE5       30.05
SALT POINT       N/A     84  76  76 CALM      30.03S
NEW IBERIA     CLEAR     79  77  94 S3        30.04R
CHENAULT AIRPK HVY RAIN  80  78  94 SE7       30.02R

$$

LAZ027-028-170500-
CENTRAL LOUISIANA

CITY           SKY/WX    TMP DP  RH WIND       PRES   REMARKS
FORT POLK      CLEAR     80  78  94 S7        30.00S
ALEXANDRIA INT CLOUDY    78  77  96 SE7       29.99S
ALEXANDRIA     CLOUDY    76  76 100 S3        30.01S

$$

LAZ001-002-170500-
NORTHWEST LOUISIANA

CITY           SKY/WX    TMP DP  RH WIND       PRES   REMARKS
SHREVEPORT     MOCLDY    82  79  90 S9        29.96R
BARKSDALE AFB  PTCLDY    81  79  95 S9        29.96R
DTN SHREVEPORT PTCLDY    84  78  82 S12       29.96R HX  95

$$

LAZ014-016-170500-
NORTHEAST LOUISIANA

CITY           SKY/WX    TMP DP  RH WIND       PRES   REMARKS
MONROE         CLEAR     77  74  90 S6        30.01R
TALLULAH       CLEAR     74  73  97 CALM      30.02R

$$





USA.gov is the U.S. government's official web portal to all federal, state and local government web resources and services.